AVA9373 SKCG-SKRG

Flight info

Callsign AVA9373
Flight time 0h 49m
Altitude 31000
Route CTG2D CTG W6 KORBA KORBA3A
Aircraft A320/M-SDE3FGHIRWY/LB1

Departure

Time 2026-05-01 12:01
Airport Rafael Nuñez International Airport (SKCG)

Arrival

Time 2026-05-01 12:50
Airport Jose Maria Córdova International Airport (SKRG)
Time Latitude Longitude Altitude Speed Heading
2026-05-01 11:41 10.44563 -75.51563 14 ft 0 kts 272°
2026-05-01 11:52 10.44562 -75.51541 16 ft 4 kts 272°
2026-05-01 11:52 10.44561 -75.51517 17 ft 2 kts 272°
2026-05-01 11:53 10.44562 -75.51492 16 ft 4 kts 253°
2026-05-01 11:53 10.44574 -75.51470 18 ft 4 kts 211°
2026-05-01 11:53 10.44587 -75.51464 14 ft 4 kts 181°
2026-05-01 11:53 10.44562 -75.51458 14 ft 4 kts 154°
2026-05-01 11:54 10.44548 -75.51438 15 ft 4 kts 109°
2026-05-01 11:54 10.44546 -75.51413 14 ft 4 kts 91°
2026-05-01 11:54 10.44546 -75.51395 14 ft 0 kts 91°
2026-05-01 11:57 10.44546 -75.51390 14 ft 2 kts 91°
2026-05-01 11:58 10.44543 -75.51348 15 ft 9 kts 95°
2026-05-01 11:58 10.44498 -75.51279 15 ft 17 kts 170°
2026-05-01 11:58 10.44153 -75.51294 12 ft 29 kts 182°
2026-05-01 11:59 10.43951 -75.51301 13 ft 29 kts 182°
2026-05-01 11:59 10.43746 -75.51310 13 ft 30 kts 183°
2026-05-01 11:59 10.43535 -75.51321 15 ft 30 kts 182°
2026-05-01 12:00 10.43201 -75.51289 18 ft 17 kts 143°
2026-05-01 12:00 10.43101 -75.51240 15 ft 16 kts 191°
2026-05-01 12:00 10.43346 -75.51329 19 ft 70 kts
2026-05-01 12:01 10.44069 -75.51298 12 ft 135 kts
2026-05-01 12:01 10.45168 -75.51255 182 ft 170 kts
2026-05-01 12:01 10.46334 -75.51210 852 ft 168 kts
2026-05-01 12:01 10.47537 -75.51160 1291 ft 182 kts
2026-05-01 12:02 10.48880 -75.51100 1552 ft 204 kts
2026-05-01 12:02 10.50310 -75.50786 1872 ft 218 kts 33°
2026-05-01 12:02 10.51230 -75.49610 2357 ft 222 kts 74°
2026-05-01 12:02 10.51144 -75.48062 2875 ft 226 kts 118°
2026-05-01 12:03 10.50052 -75.46968 3626 ft 225 kts 156°
2026-05-01 12:03 10.48572 -75.46454 4414 ft 224 kts 163°
2026-05-01 12:03 10.47060 -75.46037 5128 ft 228 kts 167°
2026-05-01 12:03 10.45396 -75.46029 5499 ft 253 kts 186°
2026-05-01 12:04 10.43578 -75.46297 5959 ft 272 kts 187°
2026-05-01 12:04 10.41683 -75.46581 6654 ft 278 kts 187°
2026-05-01 12:04 10.39757 -75.46867 7398 ft 282 kts 187°
2026-05-01 12:04 10.37802 -75.47155 8173 ft 286 kts 187°
2026-05-01 12:05 10.35824 -75.47446 8950 ft 290 kts 187°
2026-05-01 12:05 10.31772 -75.48036 10245 ft 305 kts 187°
2026-05-01 12:05 10.29591 -75.48351 10444 ft 328 kts 187°
2026-05-01 12:06 10.27297 -75.48680 10735 ft 344 kts 187°
2026-05-01 12:06 10.24903 -75.49026 11313 ft 350 kts 187°
2026-05-01 12:06 10.22475 -75.49381 11952 ft 354 kts 187°
2026-05-01 12:06 10.20022 -75.49742 12584 ft 358 kts 187°
2026-05-01 12:07 10.17546 -75.50103 13204 ft 362 kts 187°
2026-05-01 12:07 10.15041 -75.50463 13802 ft 365 kts 187°
2026-05-01 12:07 10.12508 -75.50830 14339 ft 369 kts 187°
2026-05-01 12:07 10.09956 -75.51202 14897 ft 372 kts 187°
2026-05-01 12:08 10.07381 -75.51574 15449 ft 375 kts 187°
2026-05-01 12:08 10.04781 -75.51951 15997 ft 378 kts 187°
2026-05-01 12:08 10.02169 -75.52328 16539 ft 381 kts 187°
2026-05-01 12:08 9.99535 -75.52711 17071 ft 384 kts 188°
2026-05-01 12:09 9.96876 -75.53099 17601 ft 387 kts 188°
2026-05-01 12:09 9.94198 -75.53486 18118 ft 390 kts 188°
2026-05-01 12:09 9.91502 -75.53874 18567 ft 393 kts 188°
2026-05-01 12:09 9.88791 -75.54264 19030 ft 395 kts 188°
2026-05-01 12:10 9.86063 -75.54659 19493 ft 397 kts 188°
2026-05-01 12:10 9.80613 -75.55448 20419 ft 400 kts 188°
2026-05-01 12:10 9.77857 -75.55849 20879 ft 401 kts 188°
2026-05-01 12:11 9.72306 -75.56654 21794 ft 405 kts 188°
2026-05-01 12:11 9.69513 -75.57058 22243 ft 406 kts 188°
2026-05-01 12:11 9.66706 -75.57463 22688 ft 408 kts 188°
2026-05-01 12:12 9.63894 -75.57867 23122 ft 409 kts 188°
2026-05-01 12:12 9.61067 -75.58274 23518 ft 411 kts 188°
2026-05-01 12:12 9.58227 -75.58684 23869 ft 413 kts 188°
2026-05-01 12:12 9.55370 -75.59097 24196 ft 415 kts 188°
2026-05-01 12:13 9.52505 -75.59512 24522 ft 418 kts 188°
2026-05-01 12:13 9.49615 -75.59928 24876 ft 419 kts 188°
2026-05-01 12:13 9.46725 -75.60347 25212 ft 421 kts 189°
2026-05-01 12:13 9.43816 -75.60769 25531 ft 423 kts 189°
2026-05-01 12:14 9.40893 -75.61194 25842 ft 425 kts 189°
2026-05-01 12:14 9.37957 -75.61620 26145 ft 428 kts 189°
2026-05-01 12:14 9.35002 -75.62047 26447 ft 430 kts 189°
2026-05-01 12:14 9.32032 -75.62473 26740 ft 432 kts 189°
2026-05-01 12:15 9.29046 -75.62900 27035 ft 435 kts 189°
2026-05-01 12:15 9.26038 -75.63331 27328 ft 437 kts 189°
2026-05-01 12:15 9.23022 -75.63765 27620 ft 439 kts 189°
2026-05-01 12:15 9.19988 -75.64202 27910 ft 442 kts 190°
2026-05-01 12:16 9.16939 -75.64643 28199 ft 444 kts 190°
2026-05-01 12:16 9.13874 -75.65086 28482 ft 446 kts 190°
2026-05-01 12:16 9.10798 -75.65529 28757 ft 448 kts 190°
2026-05-01 12:16 9.07704 -75.65974 29034 ft 450 kts 190°
2026-05-01 12:17 9.04594 -75.66423 29306 ft 452 kts 190°
2026-05-01 12:17 9.01474 -75.66874 29564 ft 454 kts 190°
2026-05-01 12:17 8.98346 -75.67326 29843 ft 455 kts 190°
2026-05-01 12:17 8.95247 -75.67773 30072 ft 457 kts 190°
2026-05-01 12:18 8.92090 -75.68230 30288 ft 458 kts 190°
2026-05-01 12:18 8.88925 -75.68686 30513 ft 459 kts 190°
2026-05-01 12:18 8.85761 -75.69140 30739 ft 460 kts 190°
2026-05-01 12:18 8.82594 -75.69596 30822 ft 456 kts 190°
2026-05-01 12:19 8.79503 -75.70040 30842 ft 443 kts 190°
2026-05-01 12:19 8.76469 -75.70476 30841 ft 438 kts 190°
2026-05-01 12:19 8.70449 -75.71341 30844 ft 436 kts 190°
2026-05-01 12:20 8.64446 -75.72205 30848 ft 436 kts 190°
2026-05-01 12:20 8.58448 -75.73074 30852 ft 435 kts 190°
2026-05-01 12:21 8.52481 -75.73931 30852 ft 435 kts 190°
2026-05-01 12:21 8.46485 -75.74791 30851 ft 435 kts 190°
2026-05-01 12:22 8.40491 -75.75652 30844 ft 435 kts 189°
2026-05-01 12:22 8.34493 -75.76516 30844 ft 435 kts 189°
2026-05-01 12:23 8.28494 -75.77377 30844 ft 435 kts 189°
2026-05-01 12:23 8.22494 -75.78237 30848 ft 436 kts 189°
2026-05-01 12:24 8.16497 -75.79100 30849 ft 435 kts 189°
2026-05-01 12:24 8.10500 -75.79958 30850 ft 435 kts 189°
2026-05-01 12:25 8.01496 -75.81247 30853 ft 436 kts 189°
2026-05-01 12:26 7.95439 -75.81080 30851 ft 439 kts 172°
2026-05-01 12:26 7.86392 -75.79489 30858 ft 440 kts 172°
2026-05-01 12:27 7.77342 -75.77907 30879 ft 440 kts 172°
2026-05-01 12:28 7.68329 -75.76341 30878 ft 440 kts 173°
2026-05-01 12:29 7.59287 -75.74764 30910 ft 440 kts 173°
2026-05-01 12:29 7.50234 -75.73190 30946 ft 440 kts 172°
2026-05-01 12:30 7.41173 -75.71614 30952 ft 441 kts 173°
2026-05-01 12:31 7.35133 -75.70569 30987 ft 440 kts 172°
2026-05-01 12:31 7.29100 -75.69518 30989 ft 440 kts 172°
2026-05-01 12:32 7.23103 -75.68471 30994 ft 439 kts 173°
2026-05-01 12:32 7.14063 -75.66902 30996 ft 439 kts 173°
2026-05-01 12:33 7.08045 -75.65857 30992 ft 438 kts 173°
2026-05-01 12:33 7.02029 -75.64809 31025 ft 438 kts 172°
2026-05-01 12:34 6.96028 -75.63760 31012 ft 438 kts 172°
2026-05-01 12:34 6.90025 -75.62714 31042 ft 437 kts 172°
2026-05-01 12:35 6.84025 -75.61677 31042 ft 438 kts 172°
2026-05-01 12:35 6.78052 -75.60647 31043 ft 438 kts 173°
2026-05-01 12:36 6.72006 -75.59621 31064 ft 438 kts 173°
2026-05-01 12:36 6.69011 -75.59117 30920 ft 448 kts 173°
2026-05-01 12:36 6.65862 -75.58589 29999 ft 468 kts 172°
2026-05-01 12:37 6.62623 -75.58043 28699 ft 475 kts 172°
2026-05-01 12:37 6.59328 -75.57480 27473 ft 481 kts 171°
2026-05-01 12:37 6.56016 -75.56913 26266 ft 485 kts 171°
2026-05-01 12:37 6.52688 -75.56343 25426 ft 482 kts 170°
2026-05-01 12:38 6.49400 -75.55783 24605 ft 478 kts 169°
2026-05-01 12:38 6.46137 -75.55228 23796 ft 474 kts 169°
2026-05-01 12:38 6.42890 -75.54675 22912 ft 470 kts 169°
2026-05-01 12:38 6.39685 -75.54185 22162 ft 463 kts 173°
2026-05-01 12:39 6.36519 -75.54074 21406 ft 460 kts 178°
2026-05-01 12:39 6.33336 -75.54024 20661 ft 455 kts 178°
2026-05-01 12:39 6.30183 -75.53976 20009 ft 451 kts 177°
2026-05-01 12:39 6.27061 -75.53927 19312 ft 446 kts 177°
2026-05-01 12:40 6.23985 -75.53874 18659 ft 440 kts 177°
2026-05-01 12:40 6.20934 -75.53818 17967 ft 435 kts 176°
2026-05-01 12:40 6.17936 -75.53761 17369 ft 425 kts 177°
2026-05-01 12:40 6.15005 -75.53706 16805 ft 419 kts 177°
2026-05-01 12:41 6.12114 -75.53655 16240 ft 413 kts 177°
2026-05-01 12:41 6.09250 -75.53639 15787 ft 409 kts 178°
2026-05-01 12:41 6.06424 -75.53660 15355 ft 401 kts 179°
2026-05-01 12:41 6.03689 -75.53703 15225 ft 386 kts 179°
2026-05-01 12:42 6.01048 -75.53747 15092 ft 372 kts 179°
2026-05-01 12:42 5.98499 -75.53786 14962 ft 360 kts 179°
2026-05-01 12:42 5.96045 -75.53815 14831 ft 346 kts 178°
2026-05-01 12:42 5.93716 -75.53838 14696 ft 323 kts 178°
2026-05-01 12:43 5.91546 -75.53857 14573 ft 302 kts 177°
2026-05-01 12:43 5.89588 -75.53553 14453 ft 279 kts 153°
2026-05-01 12:43 5.88126 -75.52401 14163 ft 264 kts 123°
2026-05-01 12:43 5.87500 -75.50712 13761 ft 260 kts 95°
2026-05-01 12:44 5.87477 -75.48895 13259 ft 260 kts 91°
2026-05-01 12:44 5.87495 -75.47085 12777 ft 257 kts 90°
2026-05-01 12:44 5.87838 -75.43590 11974 ft 246 kts 62°
2026-05-01 12:45 5.90088 -75.42144 11609 ft 236 kts
2026-05-01 12:45 5.92218 -75.42141 11203 ft 227 kts
2026-05-01 12:45 5.93792 -75.42163 10949 ft 225 kts
2026-05-01 12:46 5.94849 -75.42172 10777 ft 224 kts
2026-05-01 12:46 5.96398 -75.42182 10506 ft 220 kts
2026-05-01 12:46 5.97925 -75.42192 10255 ft 218 kts
2026-05-01 12:46 5.99438 -75.42202 9982 ft 217 kts
2026-05-01 12:47 6.00932 -75.42212 9709 ft 213 kts
2026-05-01 12:47 6.02388 -75.42221 9441 ft 211 kts
2026-05-01 12:47 6.03849 -75.42230 9170 ft 209 kts
2026-05-01 12:47 6.05295 -75.42240 8917 ft 207 kts
2026-05-01 12:48 6.06681 -75.42250 8671 ft 191 kts
2026-05-01 12:48 6.07970 -75.42258 8423 ft 179 kts
2026-05-01 12:48 6.09191 -75.42266 8200 ft 172 kts
2026-05-01 12:48 6.10381 -75.42273 7972 ft 170 kts
2026-05-01 12:49 6.11555 -75.42281 7731 ft 166 kts
2026-05-01 12:49 6.12697 -75.42288 7496 ft 162 kts
2026-05-01 12:49 6.13810 -75.42295 7248 ft 158 kts 360°
2026-05-01 12:49 6.14894 -75.42302 7025 ft 154 kts 359°
2026-05-01 12:50 6.15903 -75.42310 6980 ft 128 kts 359°
2026-05-01 12:50 6.16621 -75.42314 7002 ft 79 kts 359°
2026-05-01 12:50 6.16964 -75.42333 7018 ft 31 kts 340°
2026-05-01 12:50 6.17107 -75.42408 7017 ft 20 kts 328°
2026-05-01 12:51 6.17195 -75.42491 7021 ft 15 kts 275°
2026-05-01 12:51 6.17179 -75.42601 7018 ft 15 kts 230°
2026-05-01 12:51 6.17010 -75.42669 7017 ft 13 kts 219°
2026-05-01 12:52 6.16953 -75.42731 7019 ft 8 kts 254°
2026-05-01 12:52 6.16988 -75.42766 7016 ft 2 kts 329°
2026-05-01 12:52 6.16989 -75.42767 7016 ft 0 kts 329°